NOAA 17 (27453 NORAD) Tracking and Keplerian Element Data

This shows tracking and keplerian element data for the satellite.

Feedback or suggestion? Click here.




ElementValue
Catalog27453
NameNOAA 17
Epoch Orbit17597
Epoch Day34.93844106
Epoch Year2025
RAAN351.8158
Inclination98.796
Eccentricity0.0011715
Argument of Perigee1.8433
Mean Anonmoly358.2788
Mean Motion14.25903959
Decay Rate4.87E-06
L11 27453U 02032A 25034.93844106 .00000487 00000+0 22338-3 0 9996
L22 27453 98.7960 351.8158 0011715 1.8433 358.2788 14.25903959175974



Live tracking and technical data element details for NOAA 17 (NORAD 27453). NOAA 17 can be tracked NOW for your location showing map with azimuth and elevation plus other details from your city location.







IsCatalogInMostPopularTable: catalog: 27453, numindb: 492
Update: records affected: 1



GetName: 27453 NOAA 17

Hit Count: updated at: Thu, 22 May 2025 03:53:14 GMT